Location: Wheeling
(40.0640°N, 80.7210°W)
Time: 20:36:12
(UTC-05:00)

KAITUO 1B - Pass Details

Date: 28 October 2021
Orbit: 489 x 506 km, 97.4° (Epoch: 07 December)

Event Time Altitude Azimuth Distance (km) Brightness Sun altitude
Rises 07:05:13 0° 27° (NNE) 2,595 ? -8.8°
Reaches altitude 10° 07:07:41 10° 44° (NE) 1,710 ? -8.3°
Maximum altitude 07:10:31 21° 95° (E) 1,177 ? -7.8°
Drops below altitude 10° 07:13:21 10° 145° (SE) 1,706 ? -7.2°
Sets 07:15:48 0° 162° (SSE) 2,588 ? -6.8°
